Location: Maiden
(35.5760°N, 81.2120°W)
Time: 02:25:38
(UTC-05:00)

Resurs 01 Rocket - Pass Details

Date: 14 June 2018
Orbit: 635 x 644 km, 98.1° (Epoch: 15 November)

Event Time Altitude Azimuth Distance (km) Brightness Sun altitude
Exits shadow 21:04:34 - 153° (SSE) 2,735 4.3 -4.8°
Reaches altitude 10° 21:06:21 10° 148° (SSE) 2,016 3.6 -5.1°
Maximum altitude 21:10:35 49° 74° (ENE) 819 2.0 -5.8°
Drops below altitude 10° 21:14:51 10° 359° (N) 2,033 4.7 -6.5°
Sets 21:17:07 0° 354° (N) 2,948 5.7 -6.9°
